SCP
3 3 3 3 3 3 3 2 2 2 2 2 1 1 1 1 1 1 1 1 1 1 1 1 1 1 1 1 1 1 0 1 1 1 1 1 1 1 1 0 0 0 0
4 4 4 4 4 3 3 3 2 2 2 2 2 2 2 2 2 2 1 1 1 1 1 1 1 1 1 1 1 1 1 1 1 1 1 1 1 1 0 0 0 0 0
5 5 5 5 5 4 3 3 3 3 3 2 2 2 2 2 2 2 1 1 1 1 2 2 2 1 1 1 1 1 1 1 1 1 1 0 0 1 0 0 0 0 0
6 5 5 5 5 4 3 3 3 3 3 3 2 2 2 2 2 2 1 1 2 2 2 2 2 2 2 1 1 1 1 1 1 1 1 1 1 1 0 0 0 0 0
7 6 5 6 5 5 4 4 3 4 4 3 3 2 2 2 2 2 1 2 2 2 2 2 2 2 2 2 1 1 1 1 1 1 1 1 1 1 0 0 0 0 0
7 6 6 6 5 5 5 4 3 4 4 4 3 2 2 2 2 1 1 2 2 2 2 2 2 1 1 1 1 1 1 1 1 1 1 1 1 1 0 0 0 0 0
5 6 5 5 5 5 5 4 4 4 4 4 3 3 2 1 1 1 1 2 2 2 2 2 1 1 1 1 1 1 1 1 1 1 1 1 1 1 0 0 0 0 0
4 5 5 5 5 5 5 5 4 4 4 4 3 3 2 1 1 1 1 2 2 2 1 1 1 1 1 1 1 1 1 1 1 1 1 1 1 1 1 0 0 0 0
4 4 4 4 4 4 4 4 4 4 4 4 3 3 2 2 1 1 1 1 1 1 1 1 1 1 1 1 1 1 1 1 1 1 1 1 1 0 0 0 0 0 0
4 4 4 5 4 4 4 4 4 4 4 4 4 3 3 2 2 1 1 1 1 1 1 1 1 1 1 1 1 1 1 1 1 1 1 1 0 0 0 0 0 0 0
4 4 4 5 4 4 4 4 4 4 4 4 4 3 3 2 2 1 1 1 1 1 1 0 0 0 0 1 1 0 0 0 0 0 0 0 0 0 0 0 0 0 0
5 5 4 5 4 4 4 4 4 4 4 3 3 3 3 2 2 2 1 1 1 0 0 0 0 0 0 0 0 0 0 0 0 0 0 0 0 0 0 0 0 0 0
6 5 4 4 4 4 4 4 4 4 4 3 3 3 3 3 2 2 1 1 0 0 0 0 0 0 0 0 0 0 0 0 0 0 0 0 0 0 0 0 0 0 0
5 5 4 3 3 3 3 3 4 3 3 3 2 2 3 3 2 1 1 0 0 0 0 0 0 0 0 0 0 0 0 0 0 0 0 0 0 0 0 0 0 0 0
4 4 4 3 2 2 2 2 2 3 3 2 1 2 2 3 2 1 0 0 0 0 0 0 0 0 0 0 0 0 0 0 0 0 0 0 0 0 0 0 0 0 0
3 3 2 2 2 2 2 2 2 2 2 2 1 1 2 2 2 1 0 0 0 0 0 0 0 0 0 0 0 0 0 0 0 0 0 0 0 0 0 0 0 0 0
1 1 1 2 2 2 2 2 2 2 2 1 1 1 1 1 1 1 0 0 0 0 0 0 0 0 0 0 0 0 0 0 0 0 0 0 0 0 0 0 0 0 0
1 1 1 1 1 1 2 2 2 1 1 1 0 0 1 0 0 0 0 0 0 0 0 0 0 0 0 0 0 0 0 0 0 0 0 0 0 0 0 0 0 0 0
0 0 0 0 1 1 1 1 1 1 0 0 0 0 0 0 0 0 0 0 0 0 0 0 0 0 0 0 0 0 0 0 0 0 0 0 0 0 0 0 0 0 0
0 0 0 0 0 0 0 0 0 0 0 0 0 0 0 0 0 0 0 0 0 0 0 0 0 0 0 0 0 0 0 0 0 0 0 0 0 0 0 0 0 0 0
0 0 0 0 0 0 0 0 0 0 0 0 0 0 0 0 0 0 0 0 0 0 0 0 0 0 0 0 0 0 0 0 0 0 0 0 0 0 0 0 0 0 0
0 0 0 0 0 0 0 0 0 0 0 0 0 0 0 0 0 0 0 0 0 0 0 0 0 0 0 0 0 0 0 0 0 0 0 0 0 0 0 0 0 0 0
0 0 0 0 0 0 0 0 0 0 0 0 0 0 0 0 0 0 0 0 0 0 0 0 0 0 0 0 0 0 0 0 0 0 0 0 0 0 0 0 0 0 0
0 0 0 0 0 0 0 0 0 0 0 0 0 0 0 0 0 0 0 0 0 0 0 0 0 0 0 0 0 0 0 0 0 0 0 0 0 0 0 0 0 0 0
0 0 0 0 0 0 0 0 0 0 0 0 0 0 0 0 0 0 0 0 0 0 0 0 0 0 0 0 0 0 0 0 0 0 0 0 0 0 0 0 0 0 0
0 0 0 0 0 0 0 0 0 0 0 0 0 0 0 0 0 0 0 0 0 0 0 0 0 0 0 0 0 0 0 0 0 0 0 0 0 0 0 0 0 0 0
Wind_Speed
6 6 6 5 7 6 7 7 7 7 7 7 7 6 5 4 3 3 4 9 7 6 6 7 7 7 7 6 6 6 6 6 6 7 7 7 6 6 6 7 7 7 6
6 6 6 6 6 6 6 6 7 7 6 5 5 4 4 3 3 3 3 7 9 8 8 8 8 8 8 8 8 8 8 8 9 9 9 9 8 8 8 8 8 8 8
7 6 6 6 6 6 6 6 6 6 6 5 5 4 2 1 2 2 2 3 6 9 9 9 9 9 9 10 10 10 10 10 10 10 10 10 9 9 9 9 10 10 9
7 7 6 6 6 5 5 6 6 6 5 5 4 3 3 3 3 3 3 3 3 5 9 11 11 10 11 11 11 12 12 12 12 11 11 11 10 10 10 10 10 9 10
7 7 6 6 6 6 6 6 6 5 6 5 4 4 3 3 3 3 4 4 4 5 7 11 13 12 12 12 12 13 13 13 13 12 12 12 12 11 11 11 10 10 10
7 6 6 7 7 6 6 6 6 6 5 5 5 4 3 2 3 3 3 4 5 6 7 7 8 10 13 12 12 13 13 14 13 13 12 12 11 11 11 10 10 10 10
6 6 5 5 6 7 8 8 7 8 7 7 6 4 4 3 3 3 3 4 6 6 6 6 6 6 8 13 13 13 13 13 13 12 12 11 11 11 10 10 10 10 10
4 4 5 4 5 5 8 9 8 6 6 7 6 6 4 3 2 3 3 4 5 5 6 7 7 6 6 6 10 13 13 12 12 11 11 11 10 10 10 10 10 10 10
3 3 4 4 5 5 6 7 8 9 7 7 6 5 6 5 4 3 3 4 4 4 5 6 7 7 7 6 7 11 12 11 11 11 11 10 10 9 9 9 9 9 8
2 3 4 4 5 5 6 7 8 7 9 8 6 4 2 4 6 5 3 3 4 5 5 5 6 6 6 6 8 11 11 10 10 10 10 9 9 9 9 9 9 8 8
1 2 3 2 3 3 4 6 6 7 7 8 6 5 4 4 4 5 6 5 4 3 4 4 5 5 5 6 6 10 10 9 9 9 9 9 8 8 8 8 8 8 8
0 0 1 1 1 2 3 4 5 7 6 7 6 5 5 5 5 5 6 7 6 4 4 3 4 4 4 5 8 10 9 9 8 8 8 8 8 8 8 8 7 7 7
1 1 1 0 0 0 1 2 3 4 5 6 6 5 4 4 4 4 7 6 6 4 4 2 2 3 4 4 7 9 9 8 7 7 7 6 6 6 6 7 7 7 7
1 2 2 2 2 2 2 1 1 1 2 3 4 4 3 4 5 6 7 8 7 4 3 4 3 3 3 4 7 4 7 7 6 6 5 5 5 5 5 5 5 5 6
3 4 4 4 5 5 4 4 3 4 4 4 4 4 4 4 5 5 6 7 7 7 5 5 5 5 4 4 4 3 5 7 6 5 5 4 4 4 3 4 4 4 4
5 5 6 6 7 7 6 5 5 6 6 6 5 6 6 5 5 6 6 4 4 6 6 6 5 6 5 6 4 3 4 9 7 5 4 4 4 3 3 3 2 2 1
6 7 7 8 8 8 7 7 7 7 8 8 7 8 8 7 6 6 6 6 5 6 9 8 7 7 6 5 5 3 4 5 6 7 5 4 4 4 3 3 2 1 1
8 8 8 9 9 9 8 8 8 8 9 9 9 9 9 8 8 7 6 7 6 7 10 11 8 7 6 5 4 3 3 2 4 8 6 5 4 4 4 4 3 3 2
9 9 10 10 10 10 10 9 9 10 10 10 10 10 10 10 9 8 8 8 8 8 9 9 8 6 6 5 5 4 3 1 2 7 8 8 6 5 5 5 4 4 4
9 10 10 10 10 10 10 10 11 11 11 11 11 11 10 10 10 10 9 9 9 9 8 8 8 6 5 5 3 3 3 3 1 2 2 4 7 9 8 7 6 5 5
10 10 11 11 10 9 9 10 10 11 12 13 13 13 13 14 13 9 8 9 8 7 7 7 7 6 5 4 3 2 2 2 3 0 2 2 4 5 7 9 8 6 5
11 11 11 11 11 10 12 12 10 11 11 12 12 12 13 13 15 16 16 14 9 6 6 5 6 6 5 4 3 1 1 0 2 2 3 1 1 1 2 2 6 5 5
10 11 11 11 12 12 13 13 11 10 12 11 11 10 10 10 10 12 12 12 13 13 8 5 7 6 5 4 2 2 2 2 3 2 3 1 0 1 1 3 8 5 6
9 10 11 11 11 11 11 11 10 12 12 11 11 11 10 10 9 7 10 10 10 9 6 6 6 5 5 3 2 1 0 2 4 2 2 3 2 2 2 1 9 8 7
9 10 10 10 11 9 9 8 6 9 10 11 10 10 10 10 8 6 8 9 9 7 7 7 6 5 4 3 4 3 1 2 1 2 0 3 3 3 2 1 6 11 10
8 9 10 9 10 9 8 8 4 7 9 9 9 10 12 9 8 7 6 7 7 6 6 6 5 4 4 3 3 4 5 4 3 1 2 3 3 4 3 1 2 3 6
Wind_Direction
206 200 205 202 207 200 193 205 208 195 201 207 216 215 224 224 210 182 134 133 141 149 149 146 144 145 143 135 127 123 119 115 110 104 97 92 89 86 83 78 75 70 64
208 208 208 206 211 209 208 205 203 196 205 202 208 206 218 206 191 175 154 129 126 128 129 130 130 132 130 124 118 115 111 106 101 98 94 89 85 84 81 77 74 71 67
210 213 211 209 213 210 208 211 209 203 197 189 184 179 183 185 156 146 139 137 129 118 115 118 118 119 121 118 116 112 108 103 99 96 92 90 87 84 82 79 76 74 71
213 217 217 215 210 207 205 205 208 203 195 186 173 164 149 138 128 131 131 129 124 125 116 109 109 110 112 112 112 109 105 102 98 95 92 90 88 85 83 81 77 74 73
219 219 221 216 212 209 206 208 198 195 186 173 158 137 125 126 122 120 114 109 108 115 116 110 105 104 108 108 109 107 105 101 97 94 91 87 85 83 80 78 76 74 72
223 223 226 218 212 212 207 205 192 186 177 157 140 115 99 101 112 111 115 110 110 112 113 115 113 101 98 103 105 107 105 101 97 94 91 87 83 81 78 77 76 73 70
227 223 227 215 213 212 207 201 192 181 171 155 136 122 94 76 86 93 103 113 106 102 105 107 105 107 104 97 97 101 102 100 97 93 90 87 85 82 79 77 75 71 67
233 229 229 228 218 216 206 201 191 182 176 173 163 155 154 145 102 84 101 116 112 112 106 99 99 99 102 103 94 95 94 97 97 94 91 88 86 83 79 77 75 72 68
239 247 239 238 228 222 211 202 194 190 185 186 187 177 175 175 139 113 97 96 108 112 106 101 100 99 99 99 104 93 91 92 94 93 92 89 86 84 81 77 74 70 66
253 252 248 239 228 219 215 209 204 200 189 187 191 204 190 148 155 145 131 108 102 101 104 109 105 100 100 97 96 95 91 90 93 94 93 90 87 84 80 75 69 63 59
248 242 244 242 233 223 220 216 208 209 200 193 183 175 162 151 154 152 154 150 124 102 104 109 107 105 104 107 110 102 97 92 91 94 93 91 88 84 79 73 68 62 57
80 309 219 224 242 241 227 220 208 209 205 197 186 178 172 168 176 160 152 155 142 122 107 104 117 120 120 119 107 110 106 99 94 94 94 93 88 82 77 72 68 62 55
73 30 351 121 106 241 244 227 205 204 200 193 188 183 179 169 157 137 135 139 130 123 120 119 125 134 141 130 120 124 117 108 103 100 100 100 96 88 79 70 64 58 53
58 61 58 51 51 58 59 73 127 155 152 161 160 161 152 147 143 141 139 138 132 127 134 146 150 163 146 127 110 156 126 123 119 114 111 111 108 100 88 79 71 64 57
72 73 73 66 59 60 62 67 73 79 88 98 115 125 123 126 131 132 137 146 143 146 145 159 162 154 146 121 136 153 132 132 134 129 130 130 127 121 114 105 92 77 63
76 78 76 76 72 69 68 72 76 80 86 86 91 98 101 105 111 120 130 135 136 142 139 149 142 142 144 143 158 157 135 147 152 151 153 158 158 155 150 139 125 105 80
73 77 78 78 75 71 70 76 81 87 91 90 93 97 100 107 116 123 128 129 131 133 126 128 128 130 145 150 148 173 166 181 152 158 164 176 180 180 177 176 177 185 195
74 74 75 76 75 73 71 75 83 84 88 91 94 99 103 109 111 118 124 122 116 120 130 130 133 140 146 152 158 188 164 171 141 144 168 180 189 195 195 195 199 205 221
76 74 73 72 74 75 73 72 79 84 84 85 89 94 100 105 106 108 112 112 115 117 121 130 133 135 146 149 167 169 143 166 177 153 174 182 188 198 201 203 208 216 230
78 77 76 74 72 71 73 76 80 82 84 83 84 85 89 95 101 106 105 108 111 117 124 129 131 138 139 148 172 159 155 167 179 158 171 186 184 196 200 203 209 219 232
79 79 79 77 73 69 66 74 84 85 85 84 81 79 76 75 67 73 94 107 118 126 131 131 133 136 131 148 141 135 132 171 152 170 253 194 186 199 186 197 203 210 230
77 76 74 75 72 67 53 53 72 83 84 86 87 89 91 85 78 69 65 63 66 96 109 120 122 115 115 108 89 87 94 196 142 104 296 256 246 255 220 183 144 179 227
82 80 78 78 77 67 59 56 58 80 81 81 83 85 88 92 98 98 93 87 68 54 48 58 91 95 106 92 78 102 60 6 18 33 308 297 283 296 264 123 152 198 230
88 88 84 81 80 68 60 63 66 80 80 78 79 81 85 82 71 86 98 93 90 74 56 67 78 76 80 80 57 35 57 230 212 183 293 303 338 324 320 147 168 201 224
90 90 89 88 84 72 50 50 65 90 86 81 77 72 80 83 45 39 98 101 98 101 91 70 57 62 55 21 334 294 294 303 10 105 33 318 331 323 304 241 173 195 214
90 91 88 86 87 78 45 30 32 98 96 97 93 86 67 63 41 18 92 103 102 97 103 120 126 154 160 157 226 296 330 336 340 7 57 320 327 324 314 315 323 196 214